Location: Boleita
(10.4833°N, 66.8167°W)
Time: 03:21:01
(UTC+00:00)

SL-16 R/B - Pass Details

Date: 08 November 2025
Orbit: 840 x 847 km, 71.0° (Epoch: 09 December)

Event Time Altitude Azimuth Distance (km) Brightness Sun altitude
Rises 09:25:27 0° 183° (S) 3,390 5.5 -13.8°
Reaches altitude 10° 09:27:58 10° 178° (S) 2,457 4.8 -13.2°
Maximum altitude 09:33:22 48° 104° (ESE) 1,095 3.3 -11.9°
Drops below altitude 10° 09:38:46 10° 31° (NNE) 2,461 4.8 -10.6°
Sets 09:41:17 0° 26° (NNE) 3,396 5.5 -10.0°
